Temperature
25 24 23 24 25 24 24 24 24 24 26 25 25 26 26 26 26 26 27 27 26 25 24 23 22 21 21 20 19 19 18 17 17 16 16 15 15 15 15 14 14 14 14 13
24 24 25 26 25 24 24 24 24 25 26 26 26 26 27 27 27 27 27 27 26 25 24 22 22 21 21 20 19 18 18 17 16 16 15 15 15 15 15 14 14 14 13 13
24 25 26 26 25 24 24 24 25 24 25 25 26 26 26 26 27 26 26 26 26 25 24 22 22 21 20 19 19 18 17 17 16 16 15 15 15 15 14 14 14 14 13 13
25 26 26 26 25 25 24 25 26 25 24 24 25 24 25 26 25 26 26 26 26 25 24 22 21 21 20 19 18 18 17 17 16 16 15 15 15 14 14 14 14 14 14 13
25 25 25 25 25 26 25 26 25 25 25 25 26 25 25 26 25 26 26 26 25 25 24 22 21 21 20 19 18 18 17 17 16 16 15 15 15 14 14 14 14 14 14 13
25 26 26 25 26 26 26 25 25 25 25 24 25 25 25 26 26 26 27 26 25 24 24 22 21 20 20 19 18 17 17 17 16 16 16 15 15 14 14 14 14 14 14 13
24 25 26 26 25 25 25 24 23 23 23 24 26 26 25 26 27 27 27 26 25 24 23 22 21 20 19 19 18 17 17 16 16 16 16 15 15 15 14 14 14 14 14 14
23 23 25 26 25 25 25 24 22 21 21 23 25 25 26 27 27 27 27 26 25 24 23 22 21 20 19 18 18 17 17 16 16 16 16 15 15 15 14 14 14 14 14 14
23 23 26 27 27 26 25 24 24 23 22 22 25 26 26 27 26 27 26 25 25 24 23 22 21 20 19 18 18 17 17 16 16 16 16 15 15 15 14 14 14 14 14 14
24 24 25 26 26 26 26 25 24 24 23 23 24 25 25 25 26 26 26 25 25 24 23 22 21 20 19 19 18 17 17 17 16 16 16 15 15 15 14 14 14 14 14 14
25 24 25 25 25 25 26 25 25 25 25 23 23 24 27 26 27 27 26 26 25 24 23 22 21 21 20 19 18 18 17 17 16 16 16 15 15 15 14 14 14 14 14 14
26 24 24 25 27 27 26 26 25 24 24 24 24 24 28 28 27 27 27 26 25 25 24 23 22 21 20 19 19 18 18 17 16 16 16 15 15 15 14 14 14 14 14 14
24 23 23 23 25 26 26 26 26 26 25 24 24 24 28 27 27 27 27 26 25 25 24 23 22 21 20 19 19 18 18 17 17 16 16 15 15 15 14 14 14 14 14 13
23 23 23 22 23 25 25 26 26 25 24 24 25 25 26 27 27 26 26 26 25 24 24 23 22 21 20 20 19 19 18 18 17 16 16 15 15 15 14 14 14 14 14 13
25 24 24 25 26 26 26 26 26 26 25 25 25 26 26 27 27 27 26 26 25 24 24 23 22 21 20 20 19 19 18 18 17 17 16 16 15 15 14 14 14 14 14 14
25 25 25 25 26 26 26 26 26 26 26 26 26 26 27 27 27 27 26 26 25 24 24 23 22 21 20 20 19 19 18 18 17 17 16 16 15 15 15 14 14 14 14 13
24 24 24 24 25 25 25 26 26 26 26 26 25 25 26 26 26 26 26 25 25 24 24 23 22 22 21 20 19 19 18 18 17 17 16 16 15 15 15 14 14 14 14 13
24 24 24 24 24 23 25 27 27 26 26 26 26 26 26 26 26 26 25 25 24 24 23 23 23 22 21 21 20 19 18 18 17 17 16 16 15 15 15 14 14 14 14 13
25 24 23 23 23 24 26 27 27 26 25 26 26 26 26 26 26 25 25 24 24 23 23 23 22 22 21 21 20 19 19 18 18 17 16 16 15 15 15 14 14 14 14 13
25 24 23 23 22 22 25 26 27 26 24 25 25 25 25 25 23 24 24 23 23 23 22 22 22 21 21 21 20 20 19 18 18 17 16 16 15 15 15 14 14 14 14 13
23 23 22 22 22 24 25 26 26 24 23 24 24 24 24 23 23 23 23 23 22 22 21 21 21 21 20 20 20 19 19 18 18 17 16 16 15 15 15 14 14 14 14 13
23 23 23 23 22 23 25 25 24 23 24 23 23 23 23 22 22 22 22 22 21 21 21 21 20 20 20 20 19 19 19 18 18 17 16 16 15 15 15 14 14 14 13 13
23 23 23 23 22 23 23 23 23 23 23 22 22 22 22 21 21 21 21 21 21 20 20 20 20 20 19 19 19 19 18 18 18 17 16 16 15 15 14 14 14 14 13 13
23 24 23 22 23 23 23 22 22 22 21 21 21 21 21 21 20 20 20 20 20 19 19 19 19 19 19 19 18 18 18 18 17 17 16 15 15 15 14 14 14 14 13 13
20 21 21 21 22 22 22 21 21 21 20 20 20 20 20 20 20 20 19 20 19 19 19 19 19 19 18 18 18 18 18 17 17 16 16 15 15 15 14 14 14 14 13 13
20 20 20 20 21 21 21 20 20 19 19 19 19 19 19 19 19 19 19 19 19 18 18 18 18 18 18 18 18 18 17 17 16 16 15 15 15 14 14 14 13 13 13 13
Wind_Speed
9 9 10 11 10 7 7 9 8 6 4 6 8 8 6 7 8 8 8 8 9 11 11 9 8 7 7 6 6 6 5 5 4 2 2 2 2 2 2 2 3 3 4 4
8 11 12 11 7 6 9 10 8 6 3 5 8 10 7 7 7 6 6 6 8 9 11 10 9 7 6 6 5 6 5 5 5 3 1 0 1 2 1 1 2 3 3 3
10 9 9 9 7 7 9 9 7 5 5 8 9 9 5 5 6 6 5 3 6 9 10 12 9 8 7 7 6 5 5 5 5 3 1 2 1 2 1 1 1 2 2 1
7 6 6 7 7 7 7 6 5 6 6 5 7 5 4 6 7 7 7 6 6 8 9 10 9 8 7 7 6 5 5 5 5 3 2 1 1 1 2 2 1 2 1 1
4 4 6 6 6 6 4 5 7 8 8 9 9 6 3 7 7 8 9 8 8 8 8 10 9 8 7 7 6 5 5 4 4 2 3 1 1 1 1 1 2 2 2 1
5 4 3 4 2 3 4 6 8 9 8 8 8 5 1 3 7 8 10 9 9 9 9 9 9 8 7 7 6 5 5 4 3 2 2 2 1 1 1 2 2 2 2 2
3 4 4 3 3 4 5 5 3 3 3 4 3 3 2 5 5 6 9 10 10 9 9 9 10 9 8 7 6 5 5 4 3 1 1 2 2 0 1 2 2 2 2 2
1 2 3 4 4 3 5 5 1 2 3 3 3 2 6 8 6 6 7 8 8 9 9 9 10 9 8 8 7 6 6 4 3 2 0 1 1 1 0 1 1 2 2 2
2 1 2 3 3 4 3 3 4 3 6 4 3 3 8 9 8 6 8 9 7 8 9 9 10 9 9 8 7 6 6 5 4 3 2 1 1 1 1 2 2 2 2 2
4 3 2 2 3 5 4 3 3 3 2 3 3 1 3 8 8 8 8 9 9 9 9 9 9 9 8 8 7 7 6 5 4 3 2 3 1 1 1 1 3 3 3 3
6 4 2 3 5 5 6 6 5 4 3 2 2 2 4 5 5 5 6 8 9 9 9 9 9 9 9 9 8 7 7 5 4 3 3 3 1 1 1 1 2 2 2 2
5 4 4 6 5 3 4 5 5 3 4 4 3 1 3 5 4 4 3 5 7 8 8 9 9 9 8 8 8 8 7 6 5 4 3 3 2 2 1 1 2 2 2 2
7 4 5 3 1 3 4 6 7 6 6 5 4 1 2 4 3 4 4 4 6 7 8 8 9 9 8 8 7 8 7 7 6 5 3 3 2 2 1 1 1 2 2 2
3 6 5 5 6 5 5 6 7 7 6 7 6 4 2 1 0 2 4 4 5 7 7 8 8 9 8 8 8 7 7 7 6 6 5 3 3 2 1 1 1 2 3 3
5 8 9 9 9 8 8 8 8 9 9 9 8 7 6 4 2 1 2 3 4 6 7 8 8 8 9 8 8 7 7 7 7 7 5 4 3 3 1 1 1 1 2 3
7 10 12 12 11 10 11 10 10 10 10 10 9 7 6 6 3 2 0 2 3 5 6 8 8 9 9 8 8 8 7 7 7 7 6 4 3 3 2 1 1 1 2 3
9 11 11 11 12 12 11 9 9 8 7 8 8 5 5 5 3 3 1 0 2 4 5 6 7 8 9 10 9 9 8 7 6 7 7 5 4 3 2 0 1 1 1 1
12 11 8 10 11 12 5 4 3 5 5 6 5 4 4 5 3 2 1 1 0 2 4 5 6 7 7 9 9 10 9 8 7 6 7 6 4 3 3 1 0 2 1 1
11 10 9 9 10 9 7 5 4 4 4 4 4 5 5 6 4 2 3 3 2 2 2 4 4 5 6 7 9 9 9 8 7 6 6 7 5 4 3 2 1 1 1 1
7 8 8 9 10 9 4 4 4 4 3 5 5 5 6 6 3 3 4 4 4 4 3 3 4 4 5 6 7 7 8 8 7 7 6 6 6 5 4 2 1 1 1 1
7 7 9 10 12 8 3 3 2 3 2 6 7 6 6 5 5 5 4 4 4 4 4 3 3 4 4 5 6 6 7 7 8 8 7 7 6 5 4 2 1 0 0 1
9 7 8 9 11 6 5 3 2 4 6 7 8 8 7 6 6 5 4 3 2 2 3 3 3 3 4 5 6 6 6 7 8 8 8 7 6 5 5 4 2 1 1 0
8 7 6 6 5 4 5 4 5 6 7 7 7 7 7 6 5 5 3 2 0 1 3 3 3 4 4 5 6 7 6 8 9 9 8 7 7 5 4 4 3 2 1 1
11 10 10 10 7 6 4 4 5 5 6 7 7 7 7 6 6 5 4 2 1 1 2 3 4 5 5 5 5 6 7 9 10 9 8 7 6 6 5 3 2 2 1 1
12 12 12 13 10 8 6 6 7 8 8 8 8 7 7 7 7 6 5 4 2 2 2 4 4 5 6 6 5 6 8 9 9 9 8 7 7 6 5 5 3 3 3 3
15 14 13 12 10 10 9 7 8 9 9 9 10 9 7 7 7 7 6 5 3 3 3 3 5 5 5 6 6 6 8 9 9 8 8 7 7 7 7 7 5 7 6 8
Wind_Direction
200 215 226 228 229 244 268 279 278 265 232 250 264 265 232 201 200 208 204 195 173 160 155 142 135 139 137 129 122 113 114 107 95 64 35 31 21 339 347 4 23 10 356 350
208 225 231 234 233 245 255 265 275 284 263 262 267 266 249 196 193 209 214 196 163 151 148 139 142 146 142 130 118 119 118 110 99 90 43 59 31 299 8 7 12 0 352 353
223 233 233 234 237 245 258 265 277 285 282 275 271 258 228 207 183 191 210 181 150 154 152 145 149 143 139 132 128 129 116 113 105 109 69 12 11 320 352 358 26 336 331 7
250 253 244 229 238 240 256 275 281 276 274 274 266 275 215 172 175 189 185 166 150 139 140 140 146 143 142 135 133 132 126 119 122 133 111 10 2 2 358 359 4 323 345 22
261 239 249 244 247 252 266 288 283 276 272 272 263 265 189 166 179 185 171 156 144 142 143 141 143 141 144 137 133 133 129 125 124 130 136 177 33 3 346 351 349 336 346 334
282 260 245 263 265 258 268 273 268 260 260 263 258 258 196 176 166 161 151 145 143 144 141 139 136 134 132 127 130 135 132 128 125 152 169 158 111 331 339 344 349 329 318 332
254 248 209 219 241 232 241 263 301 285 244 256 256 237 140 101 98 131 140 144 144 142 141 140 139 140 137 138 144 148 140 135 136 163 232 123 120 354 10 345 331 324 331 350
278 249 196 203 236 247 237 241 228 293 306 309 259 204 112 116 101 106 115 119 129 139 141 145 145 147 149 153 158 163 152 151 155 169 213 33 89 106 17 314 333 340 344 7
336 290 221 222 240 269 232 235 228 247 275 279 255 143 124 126 131 140 140 135 149 153 151 154 152 153 157 160 164 170 156 157 165 172 171 124 31 45 18 356 357 353 344 358
320 289 251 189 232 242 265 278 267 257 305 304 319 353 128 146 153 162 163 161 166 162 160 160 157 159 161 161 164 165 160 162 168 174 173 132 113 71 42 5 353 351 351 3
312 300 248 215 226 231 214 239 253 278 282 296 335 9 81 118 130 158 172 166 161 160 162 162 159 159 162 163 167 168 167 163 161 165 148 125 136 116 65 27 353 352 356 349
328 311 281 248 229 245 261 264 269 284 304 304 303 0 107 119 129 143 146 144 151 156 160 159 156 156 163 167 168 168 167 163 160 159 148 138 138 113 60 11 356 354 355 347
343 317 312 301 211 214 246 259 268 279 281 284 288 271 150 117 136 148 151 155 156 160 163 159 155 159 166 169 170 169 168 162 157 155 150 134 128 109 85 327 346 352 351 352
283 274 274 275 288 284 260 254 261 271 274 285 291 295 299 34 164 150 151 164 165 168 166 160 157 161 166 171 173 169 162 156 155 151 146 146 150 138 142 306 338 356 352 351
259 279 276 273 275 273 275 269 262 262 269 275 288 303 324 323 304 187 170 171 170 170 167 163 164 165 169 176 170 163 160 160 161 156 154 156 149 134 135 289 328 16 347 340
281 286 292 286 280 278 270 263 257 259 268 276 281 290 318 328 340 340 210 168 172 172 175 173 169 167 171 172 164 160 162 167 162 153 148 145 152 145 155 244 13 12 343 338
282 286 291 288 285 281 270 265 257 255 264 274 282 300 327 326 331 325 319 172 173 172 175 173 174 175 175 172 166 164 166 170 166 155 147 151 165 152 155 149 53 322 315 338
265 279 285 283 282 273 273 288 280 267 273 285 290 313 328 319 306 323 8 21 204 161 171 171 172 167 168 166 163 164 166 168 167 156 148 150 151 145 148 145 296 292 296 326
243 254 269 277 277 273 270 273 259 263 279 313 320 344 350 330 305 7 34 45 61 108 122 143 151 151 160 157 158 162 165 160 155 148 144 145 148 149 151 159 215 267 316 316
238 248 256 270 277 280 301 2 0 301 290 11 7 8 0 351 339 8 28 42 53 78 86 106 131 141 150 148 148 158 158 152 152 149 145 141 142 147 152 157 195 261 274 281
234 237 245 260 267 272 318 339 348 284 6 26 21 16 9 2 353 351 18 42 57 85 105 121 146 145 147 144 147 160 154 154 148 143 139 138 141 150 147 142 147 164 6 359
277 269 258 258 263 269 356 341 6 14 19 26 15 9 6 358 353 1 12 36 77 109 136 150 157 146 145 153 157 160 159 145 136 137 139 143 148 155 147 142 149 158 170 207
274 280 289 285 293 335 5 11 12 6 1 8 358 354 346 338 340 341 337 343 80 148 162 168 170 162 162 165 169 165 155 142 138 141 147 151 151 147 139 142 152 172 181 141
289 301 295 288 283 302 324 334 341 342 346 348 343 340 331 322 321 316 307 292 252 183 186 181 182 181 182 180 179 167 156 150 148 154 158 158 158 152 143 134 126 112 86 72
295 301 290 287 297 304 302 318 330 336 331 324 323 321 318 314 310 307 300 289 251 221 209 196 197 197 191 180 181 168 163 162 163 166 167 163 160 152 134 119 96 113 89 98
270 273 274 279 294 297 301 310 318 314 312 314 312 307 306 303 299 298 293 287 263 227 221 216 208 206 198 186 183 175 172 174 175 175 173 168 160 154 149 138 108 68 96 98
Height
1471 1475 1476 1474 1472 1474 1478 1481 1481 1477 1470 1472 1473 1470 1468 1468 1470 1472 1474 1476 1479 1482 1487 1490 1493 1496 1498 1500 1501 1502 1503 1503 1502 1502 1502 1501 1501 1500 1500 1499 1497 1496 1494 1493
1472 1474 1469 1467 1469 1473 1477 1480 1478 1474 1468 1470 1471 1468 1464 1465 1466 1469 1471 1473 1476 1480 1484 1488 1492 1495 1497 1499 1500 1501 1502 1502 1501 1501 1501 1501 1500 1500 1499 1498 1496 1495 1493 1492
1471 1468 1464 1465 1469 1473 1475 1477 1476 1476 1471 1469 1470 1470 1464 1463 1465 1468 1470 1472 1475 1479 1482 1486 1490 1493 1496 1498 1499 1500 1500 1501 1500 1500 1500 1500 1500 1499 1498 1497 1496 1494 1493 1491
1466 1462 1463 1466 1469 1470 1478 1469 1469 1472 1477 1480 1472 1482 1467 1462 1464 1466 1469 1471 1474 1478 1481 1485 1489 1492 1494 1496 1498 1499 1499 1500 1500 1500 1500 1499 1499 1499 1498 1497 1495 1493 1492 1490
1467 1463 1465 1467 1467 1466 1471 1467 1468 1469 1473 1476 1469 1475 1470 1461 1466 1465 1466 1470 1474 1478 1481 1484 1488 1491 1493 1495 1496 1498 1498 1499 1499 1499 1499 1499 1498 1498 1497 1496 1495 1493 1492 1490
1464 1462 1463 1465 1464 1465 1465 1467 1467 1467 1472 1485 1471 1474 1475 1462 1461 1462 1464 1468 1473 1477 1481 1484 1487 1490 1492 1494 1495 1497 1497 1498 1498 1498 1498 1498 1497 1497 1496 1495 1494 1492 1491 1490
1469 1464 1462 1463 1466 1466 1468 1478 1491 1492 1491 1485 1464 1469 1471 1459 1456 1459 1462 1467 1472 1476 1480 1483 1486 1488 1491 1492 1494 1495 1496 1497 1497 1498 1498 1497 1497 1496 1496 1494 1493 1492 1491 1489
1478 1477 1464 1462 1465 1468 1469 1475 1497 1509 1504 1487 1470 1470 1463 1455 1457 1460 1463 1467 1471 1475 1479 1482 1485 1487 1489 1491 1493 1494 1495 1496 1496 1497 1497 1497 1496 1495 1495 1494 1493 1492 1490 1488
1476 1476 1462 1460 1461 1463 1470 1474 1474 1486 1489 1492 1476 1462 1459 1455 1458 1461 1464 1468 1472 1475 1478 1481 1483 1485 1487 1489 1491 1493 1494 1494 1495 1495 1496 1495 1495 1495 1494 1493 1492 1491 1490 1488
1469 1476 1465 1461 1462 1463 1464 1466 1473 1481 1493 1496 1481 1470 1468 1461 1460 1461 1463 1467 1470 1473 1476 1479 1481 1484 1486 1488 1489 1491 1492 1493 1494 1494 1495 1495 1494 1494 1493 1492 1491 1490 1489 1487
1466 1473 1471 1466 1467 1466 1466 1468 1469 1471 1474 1491 1496 1483 1456 1457 1457 1458 1461 1464 1467 1471 1474 1477 1479 1482 1484 1486 1487 1489 1490 1492 1492 1493 1494 1493 1493 1493 1492 1492 1491 1489 1488 1487
1466 1471 1474 1467 1457 1457 1460 1463 1467 1480 1480 1476 1484 1480 1452 1452 1454 1457 1459 1462 1465 1468 1472 1474 1477 1480 1482 1484 1486 1487 1489 1490 1491 1492 1492 1492 1492 1492 1491 1491 1490 1489 1488 1486
1471 1476 1484 1479 1471 1463 1463 1462 1462 1466 1471 1476 1484 1478 1452 1452 1454 1456 1458 1461 1464 1467 1470 1472 1475 1477 1480 1482 1484 1485 1487 1488 1489 1490 1491 1491 1491 1491 1490 1490 1489 1488 1487 1486
1474 1475 1483 1490 1480 1467 1465 1463 1461 1466 1475 1476 1473 1467 1456 1454 1454 1455 1457 1459 1462 1464 1467 1470 1472 1475 1477 1479 1481 1483 1485 1486 1487 1488 1489 1489 1489 1489 1489 1489 1488 1488 1486 1485
1470 1473 1470 1466 1461 1460 1461 1461 1460 1463 1464 1469 1466 1461 1457 1453 1452 1453 1455 1457 1459 1462 1464 1467 1469 1472 1474 1477 1479 1481 1483 1484 1486 1487 1487 1488 1488 1488 1488 1488 1488 1487 1486 1485
1467 1469 1467 1466 1459 1457 1458 1456 1456 1458 1457 1458 1458 1458 1451 1450 1451 1452 1453 1455 1457 1459 1462 1464 1466 1469 1471 1474 1476 1478 1480 1482 1484 1485 1485 1486 1487 1487 1487 1487 1486 1486 1485 1484
1468 1469 1472 1472 1461 1459 1463 1453 1452 1453 1452 1454 1458 1455 1450 1450 1451 1452 1452 1454 1455 1457 1459 1461 1464 1466 1468 1470 1473 1475 1478 1480 1482 1483 1483 1484 1485 1485 1485 1485 1485 1485 1484 1484
1467 1468 1470 1470 1468 1478 1459 1443 1444 1448 1449 1448 1449 1449 1449 1450 1450 1451 1451 1453 1454 1455 1457 1459 1461 1463 1466 1468 1470 1472 1475 1477 1479 1481 1481 1482 1483 1483 1484 1483 1483 1483 1483 1483
1460 1465 1470 1471 1473 1465 1452 1444 1443 1448 1450 1447 1447 1448 1448 1449 1448 1449 1451 1452 1453 1454 1455 1457 1459 1461 1464 1466 1468 1470 1473 1475 1477 1478 1479 1480 1481 1481 1482 1482 1482 1482 1482 1482
1457 1459 1467 1469 1475 1473 1455 1444 1442 1446 1454 1448 1448 1449 1449 1449 1452 1452 1451 1451 1452 1453 1454 1455 1457 1460 1462 1464 1466 1468 1470 1472 1474 1475 1477 1478 1478 1479 1480 1480 1480 1481 1481 1481
1461 1462 1467 1470 1470 1460 1449 1445 1446 1459 1459 1451 1450 1451 1451 1452 1453 1453 1452 1452 1452 1452 1453 1454 1456 1458 1460 1462 1464 1466 1468 1469 1471 1473 1474 1475 1476 1477 1478 1478 1479 1479 1480 1480
1459 1462 1462 1463 1467 1464 1448 1447 1452 1455 1452 1452 1452 1453 1453 1453 1453 1452 1452 1451 1451 1451 1452 1453 1454 1456 1458 1460 1462 1463 1465 1467 1468 1470 1472 1473 1474 1475 1476 1476 1477 1478 1478 1478
1455 1455 1456 1457 1459 1452 1450 1451 1453 1453 1453 1454 1454 1454 1454 1453 1452 1452 1451 1451 1451 1450 1450 1451 1452 1454 1455 1457 1459 1460 1462 1464 1465 1467 1469 1470 1472 1473 1473 1474 1475 1476 1476 1477
1455 1452 1453 1453 1450 1450 1451 1451 1452 1453 1454 1454 1454 1454 1453 1453 1451 1451 1450 1450 1449 1449 1449 1449 1450 1451 1452 1454 1455 1457 1459 1461 1462 1464 1466 1468 1469 1470 1471 1472 1473 1473 1474 1475
1459 1457 1455 1453 1451 1451 1450 1451 1452 1452 1452 1452 1452 1452 1452 1451 1450 1449 1448 1447 1447 1446 1446 1447 1447 1448 1449 1450 1452 1454 1455 1457 1459 1461 1463 1464 1466 1468 1469 1470 1471 1471 1472 1473
1459 1457 1457 1454 1452 1452 1450 1451 1451 1451 1451 1451 1450 1449 1449 1448 1447 1446 1445 1445 1444 1443 1443 1443 1444 1444 1445 1447 1448 1449 1451 1453 1455 1457 1459 1461 1463 1464 1466 1467 1468 1469 1470 1471